This is the latest recevied weather packets stored in our database for station/object JF2ZGN-13. If no packets are shown the sender has not sent any weather packets the latest 10 day(s).
| Time | Temp. | Humidity | Pressure | Rain* | Wind** | Luminosity | Snow |
|---|---|---|---|---|---|---|---|
| 1788494860 | 23.33° C | 55% | 908.4 hPa | 0 mm | - | - | - |
| 1788494259 | 22.78° C | 63% | 907.8 hPa | 0 mm | - | - | - |
| 1788493659 | 22.22° C | 73% | 907.9 hPa | 0 mm | - | - | - |
| 1788493059 | 21.67° C | 74% | 908 hPa | 0 mm | - | - | - |
| 1788492458 | 21.67° C | 71% | 908.2 hPa | 0 mm | - | - | - |
| 1788491857 | 21.67° C | 71% | 908.5 hPa | 0 mm | - | - | - |
| 1788491257 | 21.67° C | 71% | 908.6 hPa | 0 mm | - | - | - |
| 1788490657 | 22.22° C | 70% | 908.7 hPa | 0 mm | - | - | - |
| 1788490056 | 22.22° C | 71% | 908.9 hPa | 0 mm | - | - | - |
| 1788489456 | 22.22° C | 69% | 909.2 hPa | 0 mm | - | - | - |
| 1788488855 | 22.22° C | 66% | 909 hPa | 0 mm | - | - | - |
| 1788488255 | 22.22° C | 67% | 908.6 hPa | 0 mm | - | - | - |
| 1788487654 | 22.22° C | 62% | 908.7 hPa | 0 mm | - | - | - |
| 1788487054 | 22.78° C | 67% | 909.1 hPa | 0 mm | - | - | - |
| 1788485252 | 21.67° C | 65% | 909.4 hPa | 0 mm | - | - | - |
| 1788484652 | 21.67° C | 65% | 909.6 hPa | 0 mm | - | - | - |
| 1788483453 | 21.67° C | 61% | 910 hPa | 0 mm | - | - | - |
| 1788482250 | 21.11° C | 69% | 909.9 hPa | 0 mm | - | - | - |
| 1788481649 | 21.11° C | 71% | 909.8 hPa | 0 mm | - | - | - |
| 1788481049 | 21.67° C | 66% | 909.7 hPa | 0 mm | - | - | - |
| 1788478647 | 21.11° C | 66% | 909.1 hPa | 0 mm | - | - | - |
| 1788474444 | 20.56° C | 58% | 908.9 hPa | 0 mm | - | - | - |
| 1788470841 | 20° C | 68% | 908.7 hPa | 0 mm | - | - | - |
| 1788470241 | 20° C | 70% | 908.7 hPa | 0 mm | - | - | - |
| 1788467839 | 20° C | 67% | 908.1 hPa | 0 mm | - | - | - |
* Rain since midnight (hover to see other rain measurements)
** Current wind speed in m/s (hover to see current wind gust speed)